Home > Weather > Bamenda > Past weeks

Flag for Cameroon Past Weather in Bamenda, Cameroon — Yesterday and Last 2 Weeks

Now
75 °F

Thunderstorms. Cloudy.


Feels Like: 74 °F
Forecast: 62 / 72 °F
Wind: No wind

Location: Douala Obs.

Current Time: May 29, 2016 at 8:58:34 AM

Latest Report: May 29, 2016 at 8:00 AM


Visibility: 4 mi

Pressure: 29.95 "Hg (25.97 "Hg at 1240m altitude)

Humidity: 94%

Dew Point: 73 °F

Location of BamendaLocation

Past Weather in Bamenda — Graph

°F

Bamenda Temperature Yesterday

Maximum temperature yesterday: 90 °F (at 1:00 PM)
Minimum temperature yesterday: 79 °F (at 6:00 AM)
Average temperature yesterday: 82 °F

High & Low Weather Summary for the Past Weeks

 TemperatureHumidityPressure
High91 °F (May 16, 1:00 PM)100% (May 14, 7:00 AM)30.04 "Hg (May 14, 7:00 AM)
Low73 °F (May 14, 7:00 AM)59% (May 17, 3:00 PM)29.74 "Hg (May 21, 4:00 PM)
Average82 °F86%29.91 "Hg
* Reported May 14 7:00 AM — May 29 7:00 AM, Bamenda, Weather by CustomWeather, © 2016

Note: Actual official high and low records may vary slightly from our data, if they occured in-between our weather recording intervals... More about our weather records

Advertising

Bamenda Weather History for the Previous 24 Hours

Scroll right to see more
 ConditionsComfort  
Time TempWeatherWind HumidityBarometerVisibility
7:00 AM
Sun, May 29
75 °FThunderstorms. Cloudy.3 mph94%29.92 "Hg4 mi
6:00 AM75 °FThunderstorms. Overcast.No wind94%29.92 "Hg4 mi
5:00 AM73 °FThunderstorms. Overcast.2 mph100%29.92 "Hg4 mi
4:00 AM77 °FThunderstorms. Overcast.No wind94%29.92 "Hg2 mi
3:00 AM77 °FStrong thunderstorms. Partly cloudy.6 mph94%29.89 "Hg1 mi
2:00 AM79 °FThunderstorms. Partly cloudy.No wind94%29.89 "Hg5 mi
1:00 AM79 °FThunderstorms. Partly cloudy.No wind94%29.92 "Hg5 mi
12:00 AM79 °FThunderstorms. Partly cloudy.No wind100%29.92 "Hg5 mi
11:00 PM
Sat, May 28
79 °FThunderstorms. Partly cloudy.No wind94%29.95 "Hg5 mi
10:00 PM79 °FThunderstorms. Partly cloudy.7 mph94%29.92 "Hg5 mi
9:00 PM81 °FThunderstorms. Partly cloudy.8 mph94%29.89 "HgN/A
8:00 PM81 °FThunderstorms. Passing clouds.3 mph94%29.89 "Hg5 mi
7:00 PM84 °FThunderstorms. Passing clouds.8 mph84%29.89 "HgN/A
6:00 PM84 °FThunderstorms. Broken clouds.8 mph84%29.86 "HgN/A
5:00 PM84 °FThunderstorms. Partly sunny.9 mph84%29.86 "HgN/A
4:00 PM86 °FThunderstorms. Partly sunny.13 mph79%29.83 "HgN/A
3:00 PM88 °FThunderstorms. Partly sunny.14 mph75%29.86 "HgN/A
2:00 PM88 °FPartly sunny.14 mph75%29.89 "HgN/A
1:00 PM90 °FPartly sunny.9 mph67%29.89 "HgN/A
12:00 PM88 °FPartly sunny.7 mph75%29.95 "HgN/A
11:00 AM86 °FPartly sunny.6 mph79%29.95 "HgN/A
10:00 AM82 °FThunderstorms. Broken clouds.3 mph84%29.98 "HgN/A
9:00 AM81 °FThunderstorms. Broken clouds.5 mph94%29.95 "Hg5 mi
8:00 AM79 °FThunderstorms. Broken clouds.No wind94%29.95 "Hg4 mi
Weather by CustomWeather, © 2016

See weather overviewHow to use our weather pages